{"data":{"norad_id":62453,"epoch":"2026-09-21T20:47:15.619200Z","epoch_age_seconds":56498,"freshness":"FRESH","line1":"1 62453U 24251X   26264.86615300  .00020119  00000+0  60496-3 0  9993","line2":"2 62453  53.1584 141.2618 0001351 109.9003 250.2146 15.34400605 97647","mean_motion":15.34400605,"eccentricity":0.0001351,"inclination_deg":53.1584,"raan_deg":141.2618,"arg_perigee_deg":109.9003,"mean_anomaly_deg":250.2146,"bstar":0.00060496,"rev_number":9764,"period_min":93.84772107803,"perigee_km":461.77724474668,"apogee_km":463.62563929372,"semimajor_km":6840.8384420202,"source":"CELESTRAK","updated_at":"2026-09-22T09:00:49.584239Z"}}